Location: Prague
(50.0830°N, 14.4670°E)
Time: 19:24:47
(UTC+02:00)

ISS - Pass Details

Date: 29 September 2021
Orbit: 417 x 423 km, 51.6° (Epoch: 25 October)

Event Time Altitude Azimuth Distance (km) Brightness Sun altitude
Rises 21:50:53 0° 285° (WNW) 2,368 1.1 -29.1°
Reaches altitude 10° 21:53:16 10° 270° (W) 1,502 -0.3 -29.5°
Enters shadow 21:53:30 11° 268° (W) 1,424 -0.5 -29.5°
